Weather Roundup
Issued by NWS

Home | Current Version | Previous Version | Text Only | Print | Product List | Glossary On
Versions: 1 2 3 4 5 6 7 8 9 10 11 12 13 14 15 16 17 18 19 20 21 22 23 24 25 26 27 28 29 30 31 32 33 34 35 36 37 38 39 40 41 42 43 44 45 46 47 48 49 50
000
NZUS93 KARX 222259
HRRWXR

CURRENT HOURLY OBSERVATIONS ACROSS
MUCH OF THE UPPER MISSISSIPPI VALLEY
NATIONAL WEATHER SERVICE LA CROSSE WI
600 PM CDT FRI SEP 22 2017


...SOUTHEAST MINNESOTA...


CITY           SKY/WX    TMP DP  RH WIND       PRES   REMARKS
ROCHESTER      SUNNY     88  66  48 S18G31    29.89S HX  90
ROCHESTER/MAYO FAIR      89  63  41 S13G24    29.89R HX  90
WINONA         SUNNY     91  63  38 S3        29.89R HX  92
AUSTIN         SUNNY     88  64  45 S14G22    29.88S
ALBERT LEA     SUNNY     91  66  43 S10G20    29.86S HX  94
DODGE CENTER   SUNNY     88  63  42 S20G26    29.88R
PRESTON        SUNNY     87  62  42 S16G24    29.92S
OWATONNA       SUNNY     90  68  48 S17G24    29.84S HX  93
FARIBAULT      SUNNY     90  68  48 SE15G24   29.82S HX  93
$$

...ELSEWHERE IN MINNESOTA...


CITY           SKY/WX    TMP DP  RH WIND       PRES   REMARKS
MINNEAPOLIS    MOSUNNY   93  70  46 S14G26    29.79S HX  99
INTNL FALLS    CLOUDY    74  67  78 SE5       29.77R
DULUTH         MOSUNNY   75  69  81 SE8       29.82F
RED WING       MOSUNNY   91  61  35 S10       29.83R HX  91
REDWOOD FALLS  LGT RAIN  91  68  46 S20G28    29.72R HX  95
MANKATO        SUNNY     90  70  51 S15       29.79S HX  95
WORTHINGTON    SUNNY     88  70  55 S20G25    29.78R HX  93
FAIRMONT       SUNNY     91  69  48 S21G29    29.80R HX  96
$$

...SOUTHWEST WISCONSIN...


CITY           SKY/WX    TMP DP  RH WIND       PRES   REMARKS
LA CROSSE      SUNNY     92  67  43 S12G24    29.90R HX  95
PRAIRIE DU CHI SUNNY     91  62  38 S7        29.93S HX  91
BOSCOBEL       CLEAR     91  66  43 VRB6      29.95S HX  93
LONE ROCK      NOT AVBL
PLATTEVILLE    CLEAR     88  67  49 S12G17    30.00S HX  91
FORT MC COY    CLEAR     89  66  47 S14       29.94R HX  91
MAUSTON-NEW LI CLEAR     89  68  50 S8        29.95S HX  93
VIROQUA        FAIR      86  68  54 S10       29.97S HX  90
WIS DELLS      NOT AVBL
$$

...ELSEWHERE IN WISCONSIN...


CITY           SKY/WX    TMP DP  RH WIND       PRES   REMARKS
MILWAUKEE      PTCLDY    86  68  54 SE10      30.02R
MADISON        PTCLDY    89  64  43 S8        29.99S HX  90
GREEN BAY      CLEAR     82  70  66 SE9       30.00F
EAU CLAIRE     NOT AVBL
BLACK RVR FLS  FAIR      91  63  38 S8        29.92S HX  92
MEDFORD        CLEAR     83  66  55 S12G17    29.95F
WAUSAU         CLEAR     85  64  49 S13       29.95F
WIS RAPIDS     CLEAR     87  66  49 SW8       29.98R
MARSHFIELD     CLEAR     84  65  52 S9        29.96S
RICE LAKE      SUNNY     88  65  46 SE12      29.88S HX  90
$$

...NORTHEAST IOWA...


CITY           SKY/WX    TMP DP  RH WIND       PRES   REMARKS
WATERLOO       SUNNY     88  65  46 S15G24    29.91R HX  90
DUBUQUE        SUNNY     85  67  54 S8        29.99S
DECORAH        SUNNY     88  66  48 S9G17     29.93R HX  90
MASON CITY     MOSUNNY   88  67  49 S20G28    29.90R HX  91
CHARLES CITY   MOSUNNY   88  66  48 S16       29.93R HX  90
OELWEIN        SUNNY     90  66  45 S12G22    29.95R HX  92
$$

...ELSEWHERE IN IOWA...


CITY           SKY/WX    TMP DP  RH WIND       PRES   REMARKS
DES MOINES     MOSUNNY   89  66  46 S17       29.90R HX  91
IOWA CITY      SUNNY     91  67  44 S9        29.96S HX  94
FORT DODGE     SUNNY     90  67  46 S17G25    29.87R HX  93
MARSHALLTOWN   SUNNY     88  69  53 S17G24    29.91S HX  92
CEDAR RAPIDS   SUNNY     89  66  46 S12       29.95S HX  91
$$

...NORTHERN ILLINOIS...


CITY           SKY/WX    TMP DP  RH WIND       PRES   REMARKS
CHICAGO-OHARE  PTCLDY    92  64  39 SW8       30.01S HX  93
CHICAGO-MIDWAY PTCLDY    93  64  38 S7        30.01F HX  94
MOLINE         SUNNY     90  64  42 S6        29.97S HX  91
ROCKFORD       CLEAR     88  65  46 S7        30.02R HX  90
PEORIA         CLEAR     91  64  40 W3        29.99S HX  92
$$

NOTE: "FAIR" INDICATES FEW OR NO CLOUDS BELOW 12,000 FEET WITH NO
SIGNIFICANT WEATHER AND/OR OBSTRUCTIONS TO VISIBILITY. WIND
SPEEDS ARE IN MILES-PER-HOUR.




USA.gov is the U.S. government's official web portal to all federal, state and local government web resources and services.